Flag for U.S.A. Weather past 2 weeks in Harrisburg, Pennsylvania, U.S.A.

Now
61 °F

Fog.


Feels Like: 61 °F
Forecast: 56 / 72 °F
Wind: N/A

Location: Capital City Airport

Current Time: Oct 2, 2014 at 8:31:13 AM

Latest Report: Oct 2, 2014 at 7:56 AM


Visibility: 5 mi

Pressure: 30.14 "Hg

Humidity: 87%

Dew point: 57 °F

Location of HarrisburgLocation

Historic Weather in Harrisburg — Graph

°F

Harrisburg temperature yesterday

Maximum temperature yesterday: 72 °F (at 2:56 PM)
Minimum temperature yesterday: 59 °F (at 11:56 PM)
Average temperature yesterday: 64 °F

Past Weeks' High & Low Weather Summary

 TemperatureHumidityPressure
High84 °F (Sep 21, 3:56 PM)97% (Sep 26, 3:56 AM)30.54 "Hg (Sep 26, 3:56 AM)
Low47 °F (Sep 23, 1:56 AM)31% (Sep 18, 4:56 PM)29.62 "Hg (Sep 21, 4:56 PM)
Average63 °F72%30.13 "Hg
* Reported Sep 17 6:56 AM — Oct 2 6:56 AM, Harrisburg, Weather by CustomWeather, © 2014

Note: Actual official high and low records may vary slightly from our data, if they occured in-between our weather recording intervals... More about our weather records

Advertising

Harrisburg weather history for previous 24 hours

 ConditionsComfort  
Time TempWeatherWind HumidityBarometerVisibility
6:56 AM
Oct 2
60 °FFog.No wind86%30.13 "Hg6 mi
5:56 AM60 °FFog.5 mph86%30.12 "Hg6 mi
4:56 AM58 °FPassing clouds.No wind90%30.10 "Hg8 mi
3:56 AM56 °FFog.No wind97%30.10 "Hg5 mi
2:56 AM58 °FFog.No wind93%30.09 "Hg5 mi
1:56 AM59 °FPassing clouds.3 mph93%30.10 "Hg9 mi
12:56 AM60 °FOvercast.No wind93%30.09 "Hg9 mi
11:56 PM
Oct 1
59 °FPartly cloudy.3 mph93%30.09 "Hg8 mi
10:56 PM61 °FClear.3 mph90%30.09 "Hg10 mi
9:56 PM63 °FClear.6 mph84%30.07 "Hg10 mi
8:56 PM61 °FClear.No wind90%30.06 "Hg9 mi
7:56 PM63 °FClear.5 mph87%30.04 "Hg10 mi
6:56 PM66 °FSunny.5 mph78%30.03 "Hg10 mi
5:56 PM70 °FPassing clouds.6 mph64%30.02 "Hg10 mi
4:56 PM71 °FPassing clouds.6 mph61%30.02 "Hg10 mi
3:56 PM72 °FPartly sunny.3 mph57%30.02 "Hg10 mi
2:56 PM72 °FPassing clouds.No wind55%30.02 "Hg10 mi
2:03 PM69 °FMostly cloudy.3 mph68%30.04 "Hg10 mi
1:56 PM70 °FBroken clouds.No wind66%30.04 "Hg9 mi
12:56 PM67 °FOvercast.No wind71%30.06 "Hg8 mi
11:56 AM65 °FMostly cloudy.No wind81%30.07 "Hg7 mi
10:56 AM64 °FOvercast.5 mph84%30.07 "Hg6 mi
10:03 AM63 °FFog.3 mph87%30.06 "Hg6 mi
9:56 AM63 °FOvercast.No wind84%30.06 "Hg6 mi
8:56 AM62 °FFog.No wind90%30.05 "Hg6 mi
Weather by CustomWeather, © 2014

See weather overviewHow to use our weather pages